Weather History for PAWS - May, 2013

Change the Weather History Date:

Wednesday, May 1, 2013

  Actual Average Record
Temperature  
Mean Temperature 37 °F -  
Max Temperature 46 °F 56 °F 66 °F (1967)
Min Temperature 28 °F 32 °F 24 °F (1964)
Degree Days  
Heating Degree Days 28    
Moisture  
Dew Point 18 °F    
Average Humidity 46    
Maximum Humidity 93    
Minimum Humidity 25    
Precipitation  
Precipitation 0.00 in - - ()
Sea Level Pressure  
Sea Level Pressure 29.62 in    
Wind  
Wind Speed 6 mph (ENE)    
Max Wind Speed 16 mph    
Max Gust Speed 23 mph    
Visibility 10 miles    
Events      
Averages and records for this station are not official NWS values.
T = Trace of Precipitation, MM = Missing Value Source: NWS Daily Summary

Daily Weather History Graph

Daily Weather History Graph

Search for Another Location

Airport or City:

Trip Planner

Search our weather history database for the weather conditions in past years. The results will help you decide how hot, cold, wet, or windy it might be!

Date:

Astronomy

May. 01, 2013 Rise Set
Actual Time 5:45 AM AKDT 10:06 PM AKDT
Civil Twilight 4:47 AM AKDT 11:05 PM AKDT
Nautical Twilight 3:04 AM AKDT 12:53 AM AKDT
Astronomical Twilight Sun does not set Sun does not set
Moon 3:22 AM AKDT (5/1) 11:40 AM AKDT (5/1)
Length of Visible Light 18h 17m
Length of Day
16h 20m
Waning Gibbous, 57% of the Moon is Illuminated
May 1
Waning Gibbous
May 2
Last Quarter
May 9
New
May 17
First Quarter
May 24
Full

Hourly Weather History & Observations

Time (AKDT) Temp. Windchill Dew Point Humidity Pressure Visibility Wind Dir Wind Speed Gust Speed Precip Events Conditions
12:16 AM 28.4 °F - 26.6 °F 93% 29.81 in 10.0 mi Calm Calm - N/A   Clear
12:36 AM 28.4 °F - 24.8 °F 86% 29.80 in 10.0 mi Calm Calm - N/A   Clear
12:56 AM 28.4 °F - 24.8 °F 86% 29.80 in 10.0 mi Calm Calm - N/A   Partly Cloudy
1:16 AM 28.4 °F - 24.8 °F 86% 29.79 in 10.0 mi Calm Calm - N/A   Mostly Cloudy
1:36 AM 28.4 °F - 23.0 °F 80% 29.79 in 10.0 mi Calm Calm - N/A   Overcast
1:56 AM 28.4 °F 23.3 °F 24.8 °F 86% 29.79 in 10.0 mi ENE 4.6 mph - N/A   Overcast
2:16 AM 30.2 °F 26.7 °F 23.0 °F 75% 29.78 in 10.0 mi East 3.5 mph - N/A   Overcast
2:36 AM 30.2 °F 26.7 °F 21.2 °F 69% 29.77 in 10.0 mi East 3.5 mph - N/A   Mostly Cloudy
2:56 AM 28.4 °F 24.6 °F 21.2 °F 74% 29.76 in 10.0 mi East 3.5 mph - N/A   Overcast
3:16 AM 30.2 °F 24.3 °F 21.2 °F 69% 29.76 in 10.0 mi ENE 5.8 mph - N/A   Overcast
3:36 AM 30.2 °F 25.4 °F 19.4 °F 64% 29.75 in 10.0 mi ENE 4.6 mph - N/A   Overcast
4:16 AM 32.0 °F 25.6 °F 17.6 °F 55% 29.73 in 10.0 mi ENE 6.9 mph - N/A   Partly Cloudy
4:36 AM 32.0 °F 24.8 °F 15.8 °F 51% 29.72 in 10.0 mi ENE 8.1 mph - N/A   Clear
4:56 AM 32.0 °F 24.8 °F 15.8 °F 51% 29.71 in 10.0 mi ENE 8.1 mph - N/A   Clear
5:16 AM 32.0 °F 24.8 °F 15.8 °F 51% 29.71 in 10.0 mi East 8.1 mph - N/A   Clear
5:36 AM 32.0 °F 23.0 °F 14.0 °F 48% 29.70 in 10.0 mi ENE 11.5 mph - N/A   Clear
5:56 AM 32.0 °F 24.8 °F 15.8 °F 51% 29.69 in 10.0 mi NE 8.1 mph - N/A   Clear
6:16 AM 30.2 °F 25.4 °F 15.8 °F 55% 29.69 in 10.0 mi NE 4.6 mph - N/A   Clear
6:36 AM 30.2 °F 24.3 °F 15.8 °F 55% 29.68 in 10.0 mi NE 5.8 mph - N/A   Clear
6:56 AM 32.0 °F 24.8 °F 15.8 °F 51% 29.68 in 10.0 mi NE 8.1 mph - N/A   Clear
7:16 AM 33.8 °F 25.8 °F 15.8 °F 48% 29.67 in 10.0 mi ENE 10.4 mph - N/A   Clear
7:36 AM 33.8 °F 25.8 °F 14.0 °F 44% 29.67 in 10.0 mi ENE 10.4 mph - N/A   Clear
7:56 AM 33.8 °F 24.8 °F 14.0 °F 44% 29.66 in 10.0 mi NE 12.7 mph 18.4 mph N/A   Clear
8:16 AM 33.8 °F 23.5 °F 14.0 °F 44% 29.66 in 10.0 mi NE 16.1 mph - N/A   Clear
8:36 AM 33.8 °F 24.8 °F 14.0 °F 44% 29.65 in 10.0 mi NE 12.7 mph 17.3 mph N/A   Clear
8:56 AM 35.6 °F 27.5 °F 15.8 °F 44% 29.65 in 10.0 mi ENE 11.5 mph 17.3 mph N/A   Clear
9:16 AM 35.6 °F 27.1 °F 15.8 °F 44% 29.65 in 10.0 mi NE 12.7 mph - N/A   Clear
9:36 AM 37.4 °F 30.3 °F 15.8 °F 41% 29.64 in 10.0 mi ENE 10.4 mph - N/A   Clear
9:56 AM 37.4 °F 29.3 °F 15.8 °F 41% 29.63 in 10.0 mi ENE 12.7 mph 23.0 mph N/A   Clear
10:16 AM 37.4 °F 28.2 °F 15.8 °F 41% 29.62 in 10.0 mi NE 16.1 mph 20.7 mph N/A   Clear
10:36 AM 39.2 °F 31.2 °F 15.8 °F 39% 29.61 in 10.0 mi ENE 13.8 mph - N/A   Clear
10:56 AM 39.2 °F 32.5 °F 17.6 °F 42% 29.60 in 10.0 mi East 10.4 mph - N/A   Clear
11:16 AM 41.0 °F 35.2 °F 15.8 °F 36% 29.60 in 10.0 mi ENE 9.2 mph - N/A   Mostly Cloudy
11:36 AM 41.0 °F 35.2 °F 17.6 °F 39% 29.59 in 10.0 mi NNE 9.2 mph - N/A   Overcast
11:56 AM 42.8 °F 37.5 °F 17.6 °F 36% 29.58 in 10.0 mi ENE 9.2 mph - N/A   Mostly Cloudy
12:16 PM 42.8 °F 37.0 °F 17.6 °F 36% 29.58 in 10.0 mi ENE 10.4 mph - N/A   Overcast
12:36 PM 44.6 °F 38.1 °F 15.8 °F 31% 29.57 in 10.0 mi ENE 13.8 mph 18.4 mph N/A   Mostly Cloudy
12:56 PM 44.6 °F 39.2 °F 15.8 °F 31% 29.56 in 10.0 mi ENE 10.4 mph - N/A   Overcast
1:16 PM 44.6 °F 39.7 °F 15.8 °F 31% 29.56 in 10.0 mi ENE 9.2 mph - N/A   Mostly Cloudy
1:36 PM 44.6 °F 40.7 °F 14.0 °F 29% 29.55 in 10.0 mi East 6.9 mph - N/A   Partly Cloudy
1:56 PM 44.6 °F 41.4 °F 15.8 °F 31% 29.54 in 10.0 mi East 5.8 mph - N/A   Mostly Cloudy
2:16 PM 46.4 °F 42.4 °F 15.8 °F 29% 29.54 in 10.0 mi ESE 8.1 mph - N/A   Mostly Cloudy
2:36 PM 46.4 °F 41.1 °F 15.8 °F 29% 29.54 in 10.0 mi ENE 11.5 mph - N/A   Mostly Cloudy
2:56 PM 46.4 °F 41.9 °F 15.8 °F 29% 29.53 in 10.0 mi NE 9.2 mph - N/A   Mostly Cloudy
3:16 PM 46.4 °F 41.9 °F 12.2 °F 25% 29.53 in 10.0 mi ENE 9.2 mph - N/A   Mostly Cloudy
3:36 PM 46.4 °F 44.3 °F 12.2 °F 25% 29.52 in 10.0 mi ENE 4.6 mph - N/A   Mostly Cloudy
3:56 PM 46.4 °F 42.4 °F 15.8 °F 29% 29.52 in 10.0 mi ENE 8.1 mph - N/A   Mostly Cloudy
4:16 PM 46.4 °F 43.5 °F 14.0 °F 27% 29.51 in 10.0 mi NNE 5.8 mph - N/A   Overcast
4:36 PM 46.4 °F 41.5 °F 15.8 °F 29% 29.51 in 10.0 mi NE 10.4 mph - N/A   Overcast
4:56 PM 46.4 °F 43.5 °F 15.8 °F 29% 29.51 in 10.0 mi NE 5.8 mph - N/A   Overcast
5:16 PM 46.4 °F - 15.8 °F 29% 29.52 in 10.0 mi Calm Calm - N/A   Overcast
5:36 PM 46.4 °F 40.7 °F 19.4 °F 34% 29.51 in 10.0 mi WNW 12.7 mph 16.1 mph N/A   Overcast
5:56 PM 46.4 °F 40.1 °F 19.4 °F 34% 29.51 in 10.0 mi West 15.0 mph 20.7 mph N/A   Overcast
6:36 PM 44.6 °F 40.7 °F 19.4 °F 37% 29.52 in 10.0 mi West 6.9 mph - N/A   Overcast
6:56 PM 44.6 °F 40.2 °F 19.4 °F 37% 29.52 in 10.0 mi West 8.1 mph - N/A   Overcast
7:16 PM 44.6 °F 42.2 °F 19.4 °F 37% 29.52 in 10.0 mi West 4.6 mph - N/A   Overcast
7:36 PM 44.6 °F 41.4 °F 19.4 °F 37% 29.52 in 10.0 mi WSW 5.8 mph - N/A   Overcast
7:56 PM 44.6 °F - 19.4 °F 37% 29.52 in 10.0 mi Calm Calm - N/A   Overcast
8:16 PM 44.6 °F - 19.4 °F 37% 29.53 in 10.0 mi Calm Calm - N/A   Overcast
8:36 PM 44.6 °F - 19.4 °F 37% 29.53 in 10.0 mi Calm Calm - N/A   Overcast
8:56 PM 44.6 °F - 19.4 °F 37% 29.53 in 10.0 mi Calm Calm - N/A   Overcast
9:16 PM 42.8 °F - 19.4 °F 39% 29.54 in 10.0 mi Calm Calm - N/A   Overcast
9:36 PM 42.8 °F 40.1 °F 21.2 °F 42% 29.54 in 10.0 mi West 4.6 mph - N/A   Mostly Cloudy
9:56 PM 41.0 °F 38.0 °F 19.4 °F 42% 29.55 in 10.0 mi WSW 4.6 mph - N/A   Overcast
10:16 PM 41.0 °F 38.0 °F 19.4 °F 42% 29.56 in 10.0 mi West 4.6 mph - N/A   Overcast
10:36 PM 39.2 °F 37.0 °F 19.4 °F 45% 29.57 in 10.0 mi SW 3.5 mph - N/A   Overcast
10:56 PM 39.2 °F 35.9 °F 19.4 °F 45% 29.58 in 10.0 mi WSW 4.6 mph - N/A   Overcast
11:16 PM 37.4 °F 34.9 °F 19.4 °F 48% 29.59 in 10.0 mi South 3.5 mph - N/A   Mostly Cloudy
11:36 PM 37.4 °F - 19.4 °F 48% 29.59 in 10.0 mi Calm Calm - N/A   Overcast
11:56 PM 37.4 °F - 21.2 °F 52% 29.60 in 10.0 mi Calm Calm - N/A   Overcast